[[{"header":{"parameterUnit":"m.s-1","parameterCategory":2,"la1":30.2991,"la2":30.254,"lo1":-89.0895,"lo2":-89.0444,"dy":0.0017,"dx":0.0017,"nx":28,"ny":28,"refTime":"2025-03-10T03:00:00:Z","depth":"0","parameterNumber":2,"parameterNumberName":"U-component_of_CURRENTS"},"data":[0,0,0,0,0,0,0,0,0,0,0,0,0,0,0,0,0,0,0,0,0,0,0,0,0,0,0,0,0,0,0,0,0,0,0,0,0,0,0,0,0,0,0,0,0,0,0,0,0,0,0,0,0,0,0,0,0,0,0.2408,0.2409,0,0.2457,0.2458,0.2458,0.2458,0.2458,0.2457,0.2457,0.246,0.2461,0.2461,0,0,0,0,0,0,0,0,0,0,0,0,0,0.2327,0.2328,0.2408,0.2409,0.241,0.2457,0.2458,0.2458,0.2458,0.2458,0.2457,0.2457,0.246,0.2461,0.2461,0,0,0,0,0,0,0,0,0,0,0,0,0,0.2365,0.2328,0.2408,0.2417,0.2419,0.2457,0.2458,0.2458,0.2458,0.2458,0.2457,0.2457,0.246,0.2461,0.2461,0.2478,0,0,0.2464,0.2464,0,0,0,0,0,0,0,0,0.2363,0.2368,0.2415,0.2417,0.2419,0.2453,0.2431,0.2463,0.2459,0.2441,0.2457,0.2456,0.2456,0.2457,0.2464,0.2478,0.2478,0.2464,0.2464,0.2464,0.2465,0,0,0,0,0,0,0,0.236,0.2366,0.2425,0.2416,0.2418,0.2424,0.2428,0.2437,0.2448,0.2442,0.2443,0.2453,0.2456,0.2464,0.2464,0.2478,0.2464,0.2464,0.2465,0.2465,0.254,0.2542,0,0,0,0,0,0,0.236,0.2363,0.2423,0.2427,0.2392,0.2426,0.2431,0.2441,0.2449,0.2451,0.2453,0.2453,0.2463,0.2464,0.2465,0.2525,0.2464,0.2465,0.2465,0.2539,0.254,0.2542,0,0,0,0,0,0,0.2358,0.2365,0.2421,0.2398,0.2406,0.2428,0.2439,0.2442,0.2453,0.2459,0.2459,0.2462,0.2463,0.2464,0.2487,0.2524,0.2465,0.2466,0.2537,0.2539,0.2541,0.262,0,0,0,0,0,0,0.2355,0.2363,0.2369,0.2398,0.2407,0.2453,0.244,0.2443,0.2461,0.2461,0.2466,0.2466,0.2462,0.2486,0.2487,0.2523,0.2466,0.2535,0.2538,0.2541,0.2615,0.2625,0.2633,0,0,0,0,0,0.2352,0.2364,0.2369,0.2376,0.2415,0.2454,0.246,0.2471,0.2462,0.2476,0.2482,0.2466,0.2506,0.2488,0.2489,0.2526,0.2533,0.2537,0.254,0.2611,0.2623,0.2633,0,0,0,0,0,0,0.2329,0.2366,0.2372,0.2394,0.2426,0.2455,0.247,0.2476,0.2492,0.249,0.2485,0.2486,0.252,0.2511,0.2491,0.2557,0.2518,0.2522,0.2571,0.2582,0.259,0.2625,0.2467,0,0,0,0,0,0.2328,0.2347,0.2385,0.2403,0.2421,0.2445,0.2461,0.2473,0.2493,0.2499,0.2505,0.2514,0.2537,0.2548,0.2559,0.2594,0.2616,0.2619,0.2628,0.2635,0.2665,0.2736,0.2755,0.2554,0.2554,0.2554,0,0,0.2323,0.2348,0.2357,0.24,0.2423,0.2464,0.2453,0.2486,0.2521,0.2497,0.2538,0.2541,0.2551,0.2594,0.2609,0.2592,0.2701,0.264,0.2646,0.2673,0.2742,0.2762,0.2779,0.2556,0.2556,0.2555,0,0,0.2332,0.2348,0.2372,0.2405,0.245,0.2475,0.2487,0.2524,0.2542,0.258,0.258,0.2616,0.2628,0.2666,0.268,0.2745,0.2741,0.2734,0.2814,0.2882,0.29,0.2916,0.2958,0.2977,0.2743,0.2743,0.2744,0,0.2324,0.2366,0.2385,0.2425,0.2463,0.2484,0.2531,0.2558,0.2597,0.2635,0.26,0.2678,0.2674,0.2766,0.2785,0.2769,0.2794,0.2772,0.2896,0.2912,0.2927,0.2967,0.2987,0.2748,0.2747,0.2747,0.2746,0,0.2361,0.2397,0.2418,0.248,0.252,0.2563,0.2613,0.2654,0.267,0.2705,0.2783,0.279,0.2847,0.2845,0.2832,0.2945,0.2923,0.2895,0.2872,0.2952,0.2988,0.3008,0.2754,0.2752,0.2751,0.275,0,0,0.2342,0.2427,0.2436,0.2479,0.2557,0.2595,0.2671,0.276,0.2819,0.2854,0.2943,0.2985,0.2998,0.3018,0.3015,0.307,0.3181,0.3032,0.3033,0.308,0.3323,0.3308,0.3328,0.3173,0.3177,0.318,0.3302,0,0.2372,0.2451,0.2493,0.2578,0.263,0.269,0.276,0.284,0.2895,0.298,0.3031,0.3093,0.3062,0.3086,0.315,0.317,0.3238,0.315,0.3234,0.3237,0.322,0.3353,0.337,0.3481,0.3321,0.3324,0.3326,0,0.2404,0.2457,0.2537,0.2645,0.2673,0.2721,0.2853,0.2918,0.3047,0.3093,0.3191,0.3219,0.333,0.3264,0.3396,0.334,0.3355,0.336,0.3365,0.3346,0.3261,0.3377,0.3522,0.3532,0.3356,0.3354,0.3352,0,0.2391,0.2495,0.2559,0.2594,0.2709,0.276,0.2825,0.295,0.3031,0.3167,0.3237,0.3361,0.3417,0.3482,0.3505,0.3462,0.3625,0.3562,0.3572,0.3569,0.3601,0.3594,0.3777,0.3674,0.3674,0.3674,0.3673,0,0.2413,0.2465,0.255,0.2583,0.2668,0.275,0.2853,0.2938,0.3081,0.3177,0.3286,0.3382,0.3473,0.3567,0.3576,0.3654,0.3694,0.3636,0.3627,0.3624,0.3619,0.3638,0.3581,0.3678,0.3677,0.3676,0.3676,0,0.2386,0.2444,0.2515,0.2622,0.2657,0.2709,0.2854,0.2925,0.3066,0.3198,0.3248,0.3435,0.3559,0.3641,0.3742,0.3741,0.3742,0.3808,0.3788,0.3775,0.3776,0.372,0.3659,0.3534,0.3864,0.3864,0.3865,0,0.2381,0.241,0.2511,0.2538,0.2577,0.267,0.2727,0.2891,0.2973,0.3212,0.3267,0.3459,0.3591,0.3775,0.3831,0.3912,0.3776,0.3928,0.3857,0.3836,0.3768,0.3541,0.3422,0.3924,0.3925,0.3926,0.3927,0,0.2357,0.2379,0.2424,0.248,0.2529,0.2609,0.2706,0.2782,0.2963,0.3103,0.3283,0.3426,0.366,0.3802,0.3928,0.3955,0.3814,0.3945,0.396,0.3884,0.3618,0.3473,0.3753,0.3935,0.3934,0.3933,0.3933,0.3932,0.2313,0.2326,0.2367,0.2417,0.2467,0.252,0.2561,0.2684,0.2826,0.3019,0.3198,0.3413,0.3753,0.3971,0.395,0.404,0.3849,0.4023,0.3973,0.3757,0.3598,0.388,0.4016,0.4016,0.4016,0.4015,0.4015,0,0.2255,0.227,0.2304,0.235,0.2364,0.2429,0.2521,0.2557,0.2671,0.2925,0.3104,0.3516,0.3785,0.3998,0.4243,0.4152,0.3891,0.4063,0.3813,0.3698,0.4054,0.4026,0.4128,0.4128,0.4128,0.4128,0.4128,0.4128,0.2221,0.2219,0.2241,0.2238,0.2263,0.2266,0.2298,0.2372,0.254,0.2809,0.3069,0.3305,0.3879,0.4371,0.4471,0.4319,0.3958,0.3819,0.3665,0.4047,0.404,0.4033,0.4001,0.4096,0.4096,0.3235,0.3229,0.3225]},{"header":{"parameterUnit":"m.s-1","parameterCategory":2,"la1":30.2991,"la2":30.254,"lo1":-89.0895,"lo2":-89.0444,"dy":0.0017,"dx":0.0017,"nx":28,"ny":28,"refTime":"2025-03-10T03:00:00:Z","depth":"0","parameterNumber":3,"parameterNumberName":"V-component_of_CURRENTS"},"data":[0,0,0,0,0,0,0,0,0,0,0,0,0,0,0,0,0,0,0,0,0,0,0,0,0,0,0,0,0,0,0,0,0,0,0,0,0,0,0,0,0,0,0,0,0,0,0,0,0,0,0,0,0,0,0,0,0,0,-0.0158,-0.0159,0,-0.0227,-0.0228,-0.0228,-0.0277,-0.0278,-0.0278,-0.0279,-0.0364,-0.0365,-0.0367,0,0,0,0,0,0,0,0,0,0,0,0,0,-0.0107,-0.0107,-0.0158,-0.0159,-0.016,-0.0227,-0.0228,-0.0229,-0.0277,-0.0278,-0.0278,-0.0279,-0.0363,-0.0365,-0.0368,0,0,0,0,0,0,0,0,0,0,0,0,0,-0.0148,-0.0108,-0.0158,-0.0192,-0.0196,-0.0227,-0.0228,-0.0229,-0.0277,-0.0278,-0.0278,-0.0279,-0.0362,-0.0365,-0.0368,-0.0374,0,0,-0.0377,-0.0378,0,0,0,0,0,0,0,0,-0.0145,-0.015,-0.0186,-0.019,-0.0194,-0.0244,-0.0241,-0.0278,-0.0277,-0.0246,-0.0279,-0.0279,-0.0325,-0.0331,-0.0342,-0.0378,-0.0382,-0.0377,-0.0379,-0.038,-0.0381,0,0,0,0,0,0,0,-0.0142,-0.0147,-0.0185,-0.0187,-0.0192,-0.0217,-0.0223,-0.0248,-0.0282,-0.0249,-0.0253,-0.026,-0.0327,-0.0339,-0.0345,-0.0383,-0.0377,-0.0379,-0.0381,-0.0382,-0.0443,-0.0443,0,0,0,0,0,0,-0.0131,-0.0144,-0.0183,-0.0187,-0.017,-0.0217,-0.0224,-0.0227,-0.0281,-0.029,-0.026,-0.0262,-0.0334,-0.0341,-0.0348,-0.0361,-0.038,-0.0382,-0.0384,-0.0443,-0.0443,-0.0443,0,0,0,0,0,0,-0.013,-0.0134,-0.018,-0.0168,-0.0175,-0.0217,-0.0221,-0.0228,-0.0242,-0.0289,-0.0298,-0.0265,-0.0335,-0.0344,-0.0368,-0.0365,-0.0384,-0.0386,-0.0443,-0.0443,-0.0443,-0.0386,0,0,0,0,0,0,-0.0128,-0.0133,-0.0128,-0.0167,-0.0176,-0.019,-0.0221,-0.0229,-0.0245,-0.0249,-0.0296,-0.0305,-0.0336,-0.0364,-0.0371,-0.0369,-0.0389,-0.0443,-0.0443,-0.0443,-0.0388,-0.0384,-0.0381,0,0,0,0,0,-0.0126,-0.0113,-0.0127,-0.0132,-0.0169,-0.019,-0.0196,-0.0229,-0.0245,-0.0244,-0.0279,-0.0304,-0.0368,-0.0366,-0.0375,-0.0373,-0.0443,-0.0443,-0.0443,-0.039,-0.0385,-0.0381,0,0,0,0,0,0,-0.0086,-0.0118,-0.0134,-0.0131,-0.0156,-0.0198,-0.0198,-0.0223,-0.025,-0.0253,-0.0301,-0.0311,-0.0333,-0.0359,-0.0356,-0.0391,-0.041,-0.0412,-0.0367,-0.0363,-0.0359,-0.0341,-0.0391,0,0,0,0,0,-0.0075,-0.0075,-0.0112,-0.0109,-0.0117,-0.0157,-0.0169,-0.0191,-0.0222,-0.0235,-0.0269,-0.0306,-0.0338,-0.0355,-0.0384,-0.04,-0.0431,-0.0406,-0.0403,-0.0399,-0.0391,-0.0444,-0.0444,-0.0442,-0.0442,-0.0442,0,0,-0.006,-0.0076,-0.0078,-0.0101,-0.0122,-0.0123,-0.0165,-0.0176,-0.018,-0.0239,-0.025,-0.0292,-0.0339,-0.036,-0.0372,-0.0382,-0.0413,-0.0399,-0.0395,-0.0389,-0.0443,-0.0444,-0.0444,-0.0442,-0.0442,-0.0442,0,0,-0.0023,-0.0042,-0.0028,-0.0044,-0.0068,-0.0094,-0.0094,-0.0131,-0.015,-0.0169,-0.0215,-0.0253,-0.0294,-0.0333,-0.0358,-0.035,-0.0391,-0.036,-0.0326,-0.0378,-0.0378,-0.0379,-0.0405,-0.0409,-0.0358,-0.0358,-0.0358,0,-0.0003,0.0009,-0.0027,-0.0016,-0.002,-0.0075,-0.0058,-0.0086,-0.0127,-0.0139,-0.0162,-0.0237,-0.0283,-0.0317,-0.032,-0.0342,-0.0368,-0.0338,-0.0372,-0.0374,-0.0376,-0.0402,-0.0407,-0.0355,-0.0356,-0.0356,-0.0356,0,0.0042,0.0053,0.0062,0.0056,0.0046,0.0052,0.0011,-0.0002,-0.0034,-0.0069,-0.0107,-0.0175,-0.0219,-0.0247,-0.0283,-0.0317,-0.033,-0.0361,-0.0381,-0.0373,-0.0401,-0.0407,-0.0351,-0.0352,-0.0353,-0.0354,0,0,0.0086,0.0094,0.0097,0.0116,0.0088,0.009,0.0081,0.006,0.0065,-0.0001,-0.0005,-0.0091,-0.0135,-0.0166,-0.0225,-0.0278,-0.032,-0.032,-0.0324,-0.0339,-0.0415,-0.0419,-0.0426,-0.0359,-0.036,-0.0361,-0.0424,0,0.0134,0.0183,0.0164,0.0207,0.0231,0.0185,0.0188,0.0158,0.0121,0.0102,0.0007,-0.0018,-0.0103,-0.0118,-0.019,-0.0281,-0.0335,-0.0299,-0.0426,-0.0429,-0.043,-0.0433,-0.0423,-0.0479,-0.0431,-0.0432,-0.0432,0,0.0184,0.0214,0.0268,0.0299,0.0305,0.0313,0.0316,0.0311,0.0255,0.0227,0.0162,0.0099,0.0012,-0.0058,-0.0222,-0.0193,-0.0297,-0.0378,-0.0383,-0.041,-0.0445,-0.0484,-0.0492,-0.0704,-0.0442,-0.0441,-0.0441,0,0.0244,0.0287,0.0339,0.0346,0.0365,0.0378,0.0378,0.0346,0.037,0.0305,0.0318,0.0189,0.0151,-0.001,-0.0182,-0.02,-0.0355,-0.0402,-0.0505,-0.0505,-0.0533,-0.0534,-0.0757,-0.0521,-0.052,-0.052,-0.052,0,0.0304,0.0346,0.0373,0.04,0.0474,0.0448,0.0507,0.0484,0.0479,0.0519,0.0389,0.0401,0.0161,0.0047,-0.0138,-0.0328,-0.0326,-0.0494,-0.0526,-0.0511,-0.0509,-0.0724,-0.0864,-0.0523,-0.0522,-0.0522,-0.0521,0,0.0362,0.0375,0.0444,0.0482,0.0505,0.0551,0.0613,0.0658,0.0629,0.0678,0.0672,0.0567,0.0416,0.0182,-0.0064,-0.0243,-0.0577,-0.051,-0.0462,-0.0488,-0.0783,-0.0918,-0.1197,-0.1314,-0.0632,-0.0633,-0.0633,0,0.0395,0.0436,0.0515,0.057,0.059,0.0661,0.0723,0.073,0.0792,0.0792,0.0836,0.0716,0.0662,0.0306,-0.0043,-0.0358,-0.0592,-0.0558,-0.0607,-0.0797,-0.0973,-0.1085,-0.1172,-0.0618,-0.0618,-0.0619,-0.0619,0,0.0462,0.0485,0.0546,0.0666,0.0744,0.0848,0.0931,0.1014,0.1029,0.1083,0.113,0.1092,0.0742,0.0447,0.0001,-0.0254,-0.0736,-0.0572,-0.0799,-0.1005,-0.1115,-0.1241,-0.0563,-0.0621,-0.0621,-0.062,-0.062,-0.062,0.0511,0.0574,0.0658,0.0777,0.0879,0.1019,0.1132,0.1231,0.1363,0.1476,0.1393,0.1418,0.0929,0.0329,-0.0071,-0.0741,-0.0772,-0.0919,-0.1071,-0.1167,-0.1287,-0.0597,-0.0674,-0.0674,-0.0675,-0.0675,-0.0675,0,0.058,0.0656,0.0767,0.0915,0.1052,0.1088,0.1274,0.1409,0.1594,0.1713,0.1772,0.1597,0.0967,0.0314,-0.0594,-0.1102,-0.1343,-0.1402,-0.1577,-0.1645,-0.1047,-0.105,-0.1177,-0.1177,-0.1177,-0.1176,-0.1176,-0.1176,0.0618,0.0741,0.0807,0.1046,0.1158,0.1372,0.1497,0.169,0.1849,0.2066,0.2148,0.2153,0.1716,-0.0113,-0.1301,-0.1603,-0.1996,-0.2099,-0.229,-0.1893,-0.1859,-0.1828,-0.1863,-0.2158,-0.216,-0.2815,-0.2821,-0.2827]}],[{"header":{"parameterUnit":"m.s-1","parameterCategory":2,"la1":30.2991,"la2":30.254,"lo1":-89.0895,"lo2":-89.0444,"dy":0.0017,"dx":0.0017,"nx":28,"ny":28,"refTime":"2025-03-10T03:00:00:Z","depth":"2","parameterNumber":2,"parameterNumberName":"U-component_of_CURRENTS"},"data":[0,0,0,0,0,0,0,0,0,0,0,0,0,0,0,0,0,0,0,0,0,0,0,0,0,0,0,0,0,0,0,0,0,0,0,0,0,0,0,0,0,0,0,0,0,0,0,0,0,0,0,0,0,0,0,0,0,0,0.2293,0.2294,0,0.234,0.2341,0.2341,0.2344,0.2343,0.2343,0.2343,0.2346,0.2347,0.2347,0,0,0,0,0,0,0,0,0,0,0,0,0,0.2213,0.2214,0.2293,0.2294,0.2295,0.234,0.2341,0.2341,0.2344,0.2343,0.2343,0.2343,0.2346,0.2347,0.2347,0,0,0,0,0,0,0,0,0,0,0,0,0,0.225,0.2215,0.2293,0.2304,0.2305,0.234,0.2341,0.2341,0.2344,0.2343,0.2343,0.2342,0.2346,0.2347,0.2347,0.236,0,0,0.2349,0.2349,0,0,0,0,0,0,0,0,0.2248,0.2253,0.2301,0.2303,0.2305,0.2338,0.2314,0.2346,0.2344,0.2326,0.2343,0.2342,0.2342,0.2343,0.2349,0.236,0.236,0.2349,0.2349,0.235,0.235,0,0,0,0,0,0,0,0.2246,0.2251,0.2309,0.2302,0.2305,0.2309,0.2313,0.232,0.2333,0.2328,0.2329,0.2338,0.2342,0.2349,0.2349,0.236,0.2349,0.235,0.235,0.235,0.242,0.2422,0,0,0,0,0,0,0.2246,0.2249,0.2308,0.2311,0.2278,0.2311,0.2316,0.2326,0.2334,0.2336,0.2339,0.2338,0.2348,0.2349,0.2349,0.241,0.235,0.235,0.2351,0.2419,0.2421,0.2422,0,0,0,0,0,0,0.2244,0.225,0.2306,0.2283,0.229,0.2313,0.2324,0.2327,0.234,0.2343,0.2344,0.2349,0.2348,0.2349,0.2371,0.2408,0.235,0.2351,0.2417,0.2419,0.2422,0.2501,0,0,0,0,0,0,0.2241,0.2249,0.2256,0.2283,0.2292,0.2337,0.2325,0.2328,0.2347,0.2347,0.2353,0.2352,0.2347,0.2371,0.2372,0.2408,0.2351,0.2415,0.2418,0.2421,0.2497,0.2506,0.2514,0,0,0,0,0,0.2238,0.2251,0.2256,0.2264,0.2301,0.2338,0.2343,0.2355,0.2348,0.2363,0.2368,0.2352,0.239,0.2372,0.2373,0.241,0.2414,0.2417,0.2421,0.2493,0.2504,0.2514,0,0,0,0,0,0,0.2218,0.2253,0.226,0.2282,0.2313,0.234,0.2355,0.2361,0.2377,0.2376,0.237,0.2372,0.2405,0.2396,0.2377,0.2439,0.24,0.2404,0.2454,0.2465,0.2473,0.2508,0.2352,0,0,0,0,0,0.2218,0.2237,0.2273,0.2291,0.2309,0.2332,0.2348,0.236,0.2379,0.2385,0.2391,0.24,0.242,0.2432,0.2441,0.2474,0.2495,0.2499,0.2508,0.2515,0.2545,0.2613,0.2632,0.2434,0.2434,0.2434,0,0,0.2214,0.2238,0.2247,0.2289,0.2312,0.235,0.234,0.2373,0.2407,0.2383,0.2424,0.2427,0.2434,0.2476,0.249,0.2473,0.2579,0.2519,0.2526,0.2552,0.2619,0.2639,0.2656,0.2436,0.2436,0.2435,0,0,0.2224,0.224,0.2264,0.2295,0.234,0.2363,0.2375,0.2411,0.2429,0.2466,0.2466,0.2502,0.2512,0.2547,0.256,0.2623,0.2619,0.2613,0.2692,0.2758,0.2775,0.2791,0.283,0.2849,0.2622,0.2622,0.2622,0,0.2217,0.2258,0.2277,0.2315,0.2351,0.2372,0.2417,0.2443,0.2481,0.2519,0.2486,0.2561,0.2557,0.2645,0.2664,0.2647,0.2671,0.2651,0.2772,0.2788,0.2802,0.2839,0.2859,0.2626,0.2626,0.2625,0.2625,0,0.2253,0.2288,0.2309,0.2367,0.2406,0.2448,0.2495,0.2536,0.2553,0.2587,0.2665,0.2671,0.2727,0.2724,0.2711,0.2822,0.2799,0.2771,0.2749,0.2828,0.286,0.2879,0.2632,0.2631,0.2629,0.2628,0,0,0.2238,0.2317,0.2326,0.2368,0.2442,0.2479,0.2552,0.2639,0.2698,0.2732,0.282,0.286,0.2876,0.2894,0.2892,0.2944,0.3053,0.2907,0.2908,0.2953,0.3189,0.3172,0.319,0.3046,0.305,0.3053,0.3166,0,0.2266,0.234,0.238,0.2462,0.2512,0.2571,0.2637,0.2716,0.2771,0.2855,0.2905,0.2967,0.2937,0.2963,0.3025,0.3044,0.3109,0.3024,0.3102,0.3104,0.3085,0.3214,0.2972,0.3054,0.3184,0.3188,0.319,0,0.2296,0.2347,0.2424,0.2527,0.2555,0.2601,0.2732,0.2794,0.2921,0.2967,0.3065,0.3094,0.3204,0.3139,0.3266,0.3213,0.3225,0.3228,0.3231,0.3208,0.3124,0.2998,0.3083,0.3221,0.3219,0.3216,0.3214,0,0.2285,0.2384,0.2446,0.248,0.259,0.2642,0.2706,0.2828,0.2906,0.3043,0.3112,0.3235,0.329,0.3353,0.3372,0.3332,0.3485,0.3424,0.3426,0.3423,0.3233,0.3207,0.353,0.353,0.353,0.353,0.3529,0,0.2306,0.2357,0.2439,0.2471,0.2554,0.2634,0.2736,0.2821,0.296,0.3053,0.3163,0.3256,0.3345,0.3434,0.3442,0.3511,0.3552,0.3489,0.3478,0.3251,0.3227,0.3376,0.3356,0.3534,0.3533,0.3532,0.3531,0,0.228,0.2336,0.2406,0.251,0.2544,0.2598,0.2738,0.2807,0.2946,0.3075,0.3125,0.3305,0.3425,0.3502,0.3598,0.3594,0.3649,0.365,0.3372,0.333,0.3522,0.3506,0.3697,0.3698,0.3699,0.3699,0.37,0,0.2275,0.2304,0.2403,0.2429,0.2469,0.2561,0.2617,0.2776,0.2855,0.3087,0.314,0.3325,0.3447,0.3618,0.3631,0.3696,0.3696,0.349,0.3388,0.3584,0.3553,0.3535,0.3517,0.3148,0.3144,0.3141,0.3138,0,0.2253,0.2276,0.232,0.2375,0.2424,0.2501,0.2595,0.2667,0.2844,0.2976,0.3148,0.328,0.3466,0.3462,0.3559,0.354,0.3469,0.3429,0.3729,0.3154,0.3079,0.3044,0.3042,0.3109,0.3112,0.3114,0.3115,0.3116,0.2212,0.2225,0.2265,0.2314,0.2364,0.2414,0.2453,0.2559,0.269,0.2835,0.302,0.3127,0.324,0.3295,0.3234,0.318,0.3405,0.3254,0.3258,0.3268,0.3195,0.3127,0.3151,0.3154,0.3156,0.3159,0.3161,0,0.2148,0.2171,0.2204,0.2249,0.2252,0.2328,0.2414,0.2414,0.2501,0.2665,0.2797,0.2686,0.2773,0.2853,0.2771,0.2827,0.2722,0.269,0.2529,0.2566,0.2596,0.2481,0.2251,0.2247,0.2243,0.224,0,0,0.2113,0.2107,0.2127,0.2119,0.2152,0.2135,0.2165,0.2177,0.2259,0.2295,0.2356,0.2608,0.2804,0.2466,0.2475,0.2349,0.2405,0.2253,0.3002,0.285,0.2874,0.2971,0.2844,0,0,0,0,0]},{"header":{"parameterUnit":"m.s-1","parameterCategory":2,"la1":30.2991,"la2":30.254,"lo1":-89.0895,"lo2":-89.0444,"dy":0.0017,"dx":0.0017,"nx":28,"ny":28,"refTime":"2025-03-10T03:00:00:Z","depth":"2","parameterNumber":3,"parameterNumberName":"V-component_of_CURRENTS"},"data":[0,0,0,0,0,0,0,0,0,0,0,0,0,0,0,0,0,0,0,0,0,0,0,0,0,0,0,0,0,0,0,0,0,0,0,0,0,0,0,0,0,0,0,0,0,0,0,0,0,0,0,0,0,0,0,0,0,0,-0.0116,-0.0117,0,-0.0184,-0.0185,-0.0186,-0.0235,-0.0235,-0.0236,-0.0236,-0.032,-0.0322,-0.0324,0,0,0,0,0,0,0,0,0,0,0,0,0,-0.0064,-0.0065,-0.0116,-0.0117,-0.0118,-0.0184,-0.0185,-0.0186,-0.0235,-0.0235,-0.0236,-0.0236,-0.0319,-0.0322,-0.0324,0,0,0,0,0,0,0,0,0,0,0,0,0,-0.0105,-0.0065,-0.0116,-0.015,-0.0154,-0.0184,-0.0185,-0.0186,-0.0235,-0.0235,-0.0236,-0.0237,-0.0319,-0.0321,-0.0324,-0.0329,0,0,-0.0333,-0.0334,0,0,0,0,0,0,0,0,-0.0102,-0.0107,-0.0145,-0.0148,-0.0152,-0.0202,-0.0198,-0.0235,-0.0235,-0.0204,-0.0236,-0.0237,-0.0281,-0.0287,-0.0299,-0.0333,-0.0336,-0.0333,-0.0334,-0.0336,-0.0336,0,0,0,0,0,0,0,-0.01,-0.0104,-0.0143,-0.0145,-0.015,-0.0174,-0.0181,-0.0205,-0.0239,-0.0207,-0.0211,-0.0218,-0.0284,-0.0296,-0.0301,-0.0338,-0.0333,-0.0335,-0.0337,-0.0338,-0.0396,-0.0396,0,0,0,0,0,0,-0.0089,-0.0101,-0.0141,-0.0145,-0.0128,-0.0175,-0.0182,-0.0185,-0.0238,-0.0247,-0.0217,-0.022,-0.0291,-0.0298,-0.0304,-0.0316,-0.0336,-0.0338,-0.034,-0.0396,-0.0396,-0.0396,0,0,0,0,0,0,-0.0087,-0.0091,-0.0138,-0.0125,-0.0133,-0.0175,-0.0179,-0.0186,-0.02,-0.0246,-0.0255,-0.0223,-0.0291,-0.03,-0.0324,-0.032,-0.0339,-0.0342,-0.0396,-0.0396,-0.0396,-0.0338,0,0,0,0,0,0,-0.0085,-0.009,-0.0087,-0.0124,-0.0133,-0.0148,-0.0178,-0.0187,-0.0203,-0.0207,-0.0254,-0.0262,-0.0293,-0.032,-0.0327,-0.0324,-0.0344,-0.0396,-0.0396,-0.0396,-0.034,-0.0336,-0.0332,0,0,0,0,0,-0.0083,-0.0071,-0.0086,-0.0091,-0.0127,-0.0148,-0.0154,-0.0186,-0.0203,-0.0202,-0.0237,-0.0261,-0.0324,-0.0322,-0.033,-0.0328,-0.0396,-0.0396,-0.0396,-0.0342,-0.0337,-0.0333,0,0,0,0,0,0,-0.0044,-0.0076,-0.0093,-0.0091,-0.0115,-0.0156,-0.0156,-0.0181,-0.0208,-0.0211,-0.0258,-0.0268,-0.0289,-0.0315,-0.0312,-0.0344,-0.0364,-0.0366,-0.0321,-0.0316,-0.0313,-0.0294,-0.0346,0,0,0,0,0,-0.0034,-0.0035,-0.0071,-0.0069,-0.0077,-0.0116,-0.0128,-0.015,-0.018,-0.0193,-0.0227,-0.0263,-0.0294,-0.0309,-0.0338,-0.0353,-0.0383,-0.0358,-0.0354,-0.0351,-0.0342,-0.0394,-0.0394,-0.0395,-0.0395,-0.0395,0,0,-0.002,-0.0036,-0.0038,-0.0061,-0.0081,-0.0082,-0.0125,-0.0136,-0.0138,-0.0197,-0.0208,-0.0249,-0.0295,-0.0313,-0.0325,-0.0335,-0.0364,-0.035,-0.0347,-0.034,-0.0394,-0.0394,-0.0394,-0.0394,-0.0394,-0.0394,0,0,0.0017,-0.0004,0.001,-0.0004,-0.0029,-0.0053,-0.0054,-0.0091,-0.0109,-0.0127,-0.0172,-0.021,-0.025,-0.0286,-0.031,-0.0301,-0.0342,-0.031,-0.0276,-0.0327,-0.0327,-0.0328,-0.0354,-0.0358,-0.0308,-0.0308,-0.0308,0,0.0036,0.0048,0.0012,0.0023,0.002,-0.0035,-0.0017,-0.0044,-0.0085,-0.0096,-0.012,-0.0193,-0.0237,-0.0268,-0.027,-0.0292,-0.0319,-0.0289,-0.0321,-0.0322,-0.0324,-0.0352,-0.0356,-0.0305,-0.0306,-0.0306,-0.0306,0,0.0081,0.0091,0.01,0.0096,0.0087,0.0092,0.0054,0.004,0.0008,-0.0025,-0.0062,-0.0129,-0.0172,-0.0198,-0.0234,-0.0266,-0.0279,-0.031,-0.033,-0.0321,-0.035,-0.0356,-0.0301,-0.0302,-0.0303,-0.0304,0,0,0.0123,0.0132,0.0135,0.0155,0.0128,0.0131,0.0125,0.0105,0.0111,0.0046,0.0042,-0.004,-0.0086,-0.0116,-0.0173,-0.0225,-0.0267,-0.0267,-0.0271,-0.0287,-0.0361,-0.0368,-0.0375,-0.0305,-0.0306,-0.0307,-0.0372,0,0.0171,0.0221,0.0203,0.0247,0.0272,0.0227,0.0233,0.0204,0.0168,0.0149,0.0057,0.0031,-0.0052,-0.0068,-0.0138,-0.0229,-0.0281,-0.0245,-0.0373,-0.0376,-0.038,-0.0383,-0.0363,-0.042,-0.0378,-0.0379,-0.038,0,0.0221,0.0251,0.0307,0.034,0.0346,0.0355,0.0359,0.0356,0.0302,0.0273,0.021,0.0147,0.0061,-0.0008,-0.0169,-0.0141,-0.0244,-0.0324,-0.0329,-0.0359,-0.0395,-0.0427,-0.0433,-0.039,-0.0389,-0.0389,-0.0388,0,0.0279,0.0324,0.0377,0.0385,0.0405,0.0419,0.042,0.039,0.0414,0.035,0.0362,0.0235,0.0196,0.0039,-0.0132,-0.015,-0.0304,-0.0349,-0.0453,-0.0453,-0.0473,-0.0474,-0.0465,-0.0465,-0.0464,-0.0464,-0.0464,0,0.0339,0.0382,0.041,0.0438,0.0511,0.0487,0.0546,0.0525,0.0519,0.0558,0.0431,0.044,0.0205,0.0092,-0.009,-0.028,-0.0276,-0.0442,-0.0475,-0.0451,-0.0449,-0.0456,-0.0454,-0.0467,-0.0466,-0.0466,-0.0465,0,0.0395,0.041,0.0479,0.0519,0.0542,0.0588,0.0649,0.0694,0.0665,0.0711,0.0705,0.0599,0.0446,0.0218,-0.0025,-0.0199,-0.0394,-0.0463,-0.0406,-0.0432,-0.0519,-0.0513,-0.0585,-0.0585,-0.0586,-0.0587,-0.0587,0,0.0428,0.0469,0.0549,0.0603,0.0623,0.0693,0.0754,0.0763,0.0822,0.0819,0.0861,0.0738,0.0678,0.0325,-0.0014,-0.0323,-0.0374,-0.0507,-0.055,-0.0508,-0.0533,-0.0526,-0.052,-0.0551,-0.0551,-0.0551,-0.0551,0,0.0494,0.0517,0.0578,0.0696,0.0772,0.0875,0.0957,0.1037,0.1051,0.1099,0.1137,0.1093,0.0747,0.044,0.0003,-0.0223,-0.0461,-0.0519,-0.0499,-0.0518,-0.0481,-0.0504,-0.0498,-0.0552,-0.0552,-0.0552,-0.0552,-0.0552,0.0541,0.0603,0.0686,0.0803,0.0903,0.104,0.115,0.1237,0.136,0.1436,0.1362,0.1305,0.0915,0.0381,-0.0021,-0.0454,-0.0445,-0.0595,-0.0593,-0.0592,-0.0571,-0.0537,-0.0614,-0.0614,-0.0614,-0.0614,-0.0614,0,0.0608,0.0682,0.0791,0.0937,0.1069,0.1107,0.1287,0.1394,0.1555,0.1601,0.1627,0.1292,0.0915,0.0472,-0.0159,-0.0535,-0.0583,-0.0659,-0.0632,-0.0628,-0.0625,-0.0605,-0.0658,-0.0659,-0.066,-0.0661,0,0,0.0645,0.0765,0.083,0.1059,0.1169,0.1368,0.1489,0.1628,0.1715,0.1789,0.1759,0.1633,0.1082,0.0631,0.0091,-0.0272,-0.0361,-0.0355,-0.0283,-0.0185,-0.0177,-0.0559,-0.052,0,0,0,0,0]}],[{"header":{"parameterUnit":"m.s-1","parameterCategory":2,"la1":30.2991,"la2":30.254,"lo1":-89.0895,"lo2":-89.0444,"dy":0.0017,"dx":0.0017,"nx":28,"ny":28,"refTime":"2025-03-10T03:00:00:Z","depth":"4","parameterNumber":2,"parameterNumberName":"U-component_of_CURRENTS"},"data":[0,0,0,0,0,0,0,0,0,0,0,0,0,0,0,0,0,0,0,0,0,0,0,0,0,0,0,0,0,0,0,0,0,0,0,0,0,0,0,0,0,0,0,0,0,0,0,0,0,0,0,0,0,0,0,0,0,0,0.1426,0.1427,0,0.1514,0.1515,0.1516,0.1575,0.1576,0.1576,0.1577,0.1658,0.166,0.1662,0,0,0,0,0,0,0,0,0,0,0,0,0,0.1287,0.1289,0.1426,0.1427,0.1428,0.1514,0.1515,0.1516,0.1575,0.1576,0.1577,0.1577,0.1658,0.166,0.1662,0,0,0,0,0,0,0,0,0,0,0,0,0,0.1356,0.129,0.1426,0.1469,0.1474,0.1514,0.1515,0.1516,0.1575,0.1576,0.1577,0.1578,0.1657,0.166,0.1662,0.1659,0,0,0.1669,0.167,0,0,0,0,0,0,0,0,0.1352,0.1361,0.1462,0.1467,0.1472,0.1536,0.1496,0.1564,0.1575,0.1535,0.1577,0.1578,0.1617,0.1623,0.1635,0.1663,0.1667,0.167,0.1671,0.1672,0.1673,0,0,0,0,0,0,0,0.1347,0.1358,0.1459,0.1463,0.1469,0.1477,0.1488,0.1509,0.1569,0.1538,0.1543,0.1556,0.162,0.1633,0.1638,0.1668,0.167,0.1672,0.1673,0.1674,0.1801,0.1803,0,0,0,0,0,0,0.1341,0.1353,0.1456,0.1462,0.1415,0.1479,0.1491,0.1513,0.1569,0.1579,0.1555,0.1558,0.1628,0.1635,0.1641,0.1736,0.1672,0.1674,0.1676,0.1799,0.1801,0.1803,0,0,0,0,0,0,0.1338,0.1349,0.1453,0.141,0.1424,0.1481,0.1505,0.1515,0.156,0.1582,0.1591,0.1595,0.1629,0.1637,0.1695,0.1736,0.1676,0.1678,0.1797,0.18,0.1802,0.1865,0,0,0,0,0,0,0.1333,0.1348,0.1375,0.141,0.1426,0.15,0.1505,0.1516,0.1565,0.1571,0.1618,0.1625,0.163,0.1691,0.1697,0.1738,0.168,0.1794,0.1798,0.1801,0.186,0.1869,0.1877,0,0,0,0,0,0.1328,0.1357,0.1376,0.1389,0.1457,0.1501,0.1511,0.1551,0.1567,0.1594,0.163,0.1625,0.1718,0.1695,0.1702,0.1744,0.1793,0.1797,0.1801,0.1856,0.1867,0.1877,0,0,0,0,0,0,0.1316,0.1367,0.1388,0.1434,0.1476,0.1512,0.1546,0.1568,0.1618,0.1634,0.1648,0.1658,0.1721,0.1725,0.1699,0.1791,0.1755,0.1761,0.1795,0.1805,0.1814,0.1801,0.1682,0,0,0,0,0,0.1324,0.1359,0.1405,0.1446,0.147,0.1513,0.1541,0.157,0.1611,0.1636,0.167,0.1706,0.1738,0.1767,0.1792,0.1844,0.1851,0.1876,0.1885,0.1892,0.1887,0.1938,0.1951,0.1817,0.1817,0.1817,0,0,0.1329,0.1364,0.1385,0.1447,0.1484,0.1524,0.1533,0.1589,0.163,0.1635,0.1711,0.1736,0.1757,0.1817,0.1846,0.1831,0.1938,0.1897,0.1903,0.1894,0.1944,0.1957,0.1968,0.182,0.182,0.1819,0,0,0.1348,0.1393,0.1426,0.1465,0.1529,0.1554,0.1577,0.1635,0.1674,0.174,0.1755,0.1801,0.1862,0.1882,0.1897,0.1966,0.1976,0.199,0.203,0.2081,0.2092,0.2102,0.2144,0.2157,0.2,0.2001,0.2001,0,0.1354,0.1404,0.1443,0.1487,0.1522,0.157,0.1611,0.1657,0.1729,0.1761,0.1776,0.1873,0.1886,0.1949,0.1975,0.1983,0.2019,0.1989,0.2092,0.2101,0.211,0.2151,0.2164,0.2004,0.2004,0.2003,0.2003,0,0.1389,0.1441,0.1467,0.1534,0.1576,0.1624,0.1682,0.174,0.179,0.1826,0.1913,0.1947,0.2006,0.2021,0.2018,0.2096,0.2104,0.2091,0.2063,0.2127,0.2166,0.2179,0.2009,0.2008,0.2007,0.2006,0,0,0.137,0.1469,0.1482,0.1519,0.1606,0.1639,0.1718,0.1787,0.1843,0.192,0.1995,0.2047,0.2081,0.21,0.2121,0.2158,0.2247,0.2162,0.2163,0.2197,0.2377,0.2262,0.2264,0.227,0.2272,0.2274,0.2384,0,0.1387,0.146,0.1511,0.1585,0.1624,0.1694,0.1759,0.1832,0.1902,0.199,0.2042,0.212,0.2112,0.2162,0.2202,0.2237,0.2283,0.2219,0.2313,0.2315,0.22,0.2275,0.2281,0.2393,0.2396,0.2398,0.24,0,0.1401,0.1449,0.1519,0.1609,0.1635,0.1692,0.1799,0.1866,0.1985,0.2048,0.214,0.2193,0.2279,0.226,0.2364,0.2338,0.2365,0.2378,0.2383,0.2256,0.2223,0.2312,0.2423,0.2421,0.2419,0.2418,0.2416,0,0.1349,0.1451,0.1504,0.1538,0.1649,0.1704,0.1773,0.1886,0.1969,0.2102,0.2192,0.2281,0.2379,0.2415,0.2474,0.2436,0.2582,0.2527,0.2447,0.244,0.2481,0.2469,0.2594,0.2594,0.2594,0.2594,0.2593,0,0.1332,0.1378,0.1493,0.1522,0.1604,0.1688,0.1796,0.1878,0.2027,0.2122,0.2235,0.2335,0.2431,0.2531,0.2527,0.2547,0.264,0.2463,0.2463,0.2507,0.2497,0.2491,0.2478,0.2598,0.2597,0.2596,0.2595,0,0.1271,0.1345,0.1411,0.1533,0.1586,0.1645,0.1827,0.1896,0.2053,0.2194,0.2254,0.2432,0.2537,0.2622,0.2698,0.2629,0.2635,0.2621,0.2695,0.2697,0.2437,0.2426,0.2504,0.2501,0.2498,0.2496,0.2494,0,0.1244,0.1273,0.141,0.1459,0.1526,0.1644,0.1723,0.1894,0.1974,0.2224,0.2276,0.2469,0.2558,0.2595,0.2666,0.268,0.2645,0.2636,0.2483,0.2436,0.243,0.2423,0.2416,0.249,0.2489,0.2489,0.2488,0,0.1184,0.1244,0.1299,0.1405,0.1494,0.1592,0.1721,0.1786,0.1971,0.2142,0.225,0.2322,0.2459,0.2504,0.2577,0.2563,0.2618,0.2607,0.2609,0.2465,0.242,0.2415,0.2411,0.2479,0.248,0.2481,0.2482,0,0.114,0.1164,0.1247,0.1331,0.1433,0.1499,0.1589,0.1693,0.1808,0.2063,0.209,0.2277,0.243,0.245,0.2496,0.2502,0.2425,0.2311,0.2327,0.2338,0.2233,0.2149,0.2135,0,0,0,0,0,0.1085,0.1105,0.117,0.1248,0.1342,0.1409,0.1563,0.1653,0.1842,0.1863,0.1975,0.2074,0.2165,0.2264,0.2231,0.2412,0.2433,0.2363,0.2309,0.2428,0.2439,0.2329,0,0,0,0,0,0,0.1046,0.1097,0.113,0.116,0.1199,0.1296,0.1387,0.1517,0.1544,0.1737,0.1799,0.1941,0.2061,0.2157,0.2187,0.2216,0.2138,0.2477,0.2472,0.2422,0.2432,0.244,0.2331,0,0,0,0,0]},{"header":{"parameterUnit":"m.s-1","parameterCategory":2,"la1":30.2991,"la2":30.254,"lo1":-89.0895,"lo2":-89.0444,"dy":0.0017,"dx":0.0017,"nx":28,"ny":28,"refTime":"2025-03-10T03:00:00:Z","depth":"4","parameterNumber":3,"parameterNumberName":"V-component_of_CURRENTS"},"data":[0,0,0,0,0,0,0,0,0,0,0,0,0,0,0,0,0,0,0,0,0,0,0,0,0,0,0,0,0,0,0,0,0,0,0,0,0,0,0,0,0,0,0,0,0,0,0,0,0,0,0,0,0,0,0,0,0,0,0.0037,0.0036,0,-0.0021,-0.0022,-0.0023,-0.0067,-0.0067,-0.0067,-0.0068,-0.0146,-0.0147,-0.0149,0,0,0,0,0,0,0,0,0,0,0,0,0,0.0098,0.0097,0.0037,0.0036,0.0035,-0.0021,-0.0022,-0.0023,-0.0067,-0.0067,-0.0067,-0.0068,-0.0145,-0.0147,-0.0149,0,0,0,0,0,0,0,0,0,0,0,0,0,0.0059,0.0097,0.0037,0.0007,0.0004,-0.0021,-0.0022,-0.0023,-0.0066,-0.0067,-0.0068,-0.0068,-0.0144,-0.0147,-0.0149,-0.0154,0,0,-0.0157,-0.0158,0,0,0,0,0,0,0,0,0.0061,0.0057,0.0012,0.0009,0.0005,-0.0037,-0.0029,-0.0068,-0.0066,-0.004,-0.0068,-0.0068,-0.0111,-0.0116,-0.0126,-0.0157,-0.0161,-0.0157,-0.0159,-0.016,-0.0161,0,0,0,0,0,0,0,0.0064,0.0059,0.0014,0.0011,0.0007,-0.0008,-0.0014,-0.0037,-0.0072,-0.0042,-0.0046,-0.0052,-0.0113,-0.0123,-0.0128,-0.0162,-0.0157,-0.016,-0.0161,-0.0162,-0.0219,-0.0219,0,0,0,0,0,0,0.0073,0.0062,0.0016,0.0012,0.0032,-0.0008,-0.0015,-0.0023,-0.0071,-0.0079,-0.0051,-0.0054,-0.0118,-0.0125,-0.0131,-0.0138,-0.016,-0.0162,-0.0164,-0.0219,-0.0219,-0.0219,0,0,0,0,0,0,0.0074,0.0069,0.0018,0.0036,0.0028,-0.0009,-0.0017,-0.0024,-0.0038,-0.0078,-0.0086,-0.0059,-0.0119,-0.0127,-0.0151,-0.0141,-0.0164,-0.0166,-0.0219,-0.0219,-0.0219,-0.0152,0,0,0,0,0,0,0.0076,0.007,0.0069,0.0036,0.0027,0.0008,-0.0017,-0.0025,-0.0041,-0.0045,-0.0087,-0.0095,-0.012,-0.0147,-0.0153,-0.0145,-0.0168,-0.0219,-0.0219,-0.0219,-0.0154,-0.015,-0.0146,0,0,0,0,0,0.0078,0.0083,0.0069,0.0064,0.0027,0.0008,0.0003,-0.0026,-0.004,-0.0042,-0.0072,-0.0093,-0.0151,-0.0149,-0.0156,-0.0149,-0.0219,-0.0219,-0.0219,-0.0156,-0.0151,-0.0146,0,0,0,0,0,0,0.0108,0.0077,0.0062,0.0056,0.0035,0.0001,-0.0001,-0.0023,-0.0048,-0.0052,-0.0092,-0.0101,-0.012,-0.0145,-0.0141,-0.0166,-0.0189,-0.019,-0.0139,-0.0134,-0.013,-0.0103,-0.017,0,0,0,0,0,0.0114,0.011,0.0077,0.0073,0.0065,0.0032,0.0021,0.0002,-0.0025,-0.0037,-0.0067,-0.01,-0.0125,-0.0137,-0.0165,-0.0175,-0.0207,-0.0177,-0.0173,-0.0169,-0.0154,-0.0198,-0.0196,-0.0218,-0.0218,-0.0218,0,0,0.0125,0.0108,0.0104,0.008,0.0062,0.0062,0.0024,0.0012,0.0014,-0.0041,-0.0048,-0.0087,-0.0126,-0.0139,-0.0149,-0.0158,-0.0182,-0.0169,-0.0165,-0.0152,-0.0198,-0.0195,-0.0193,-0.0218,-0.0218,-0.0218,0,0,0.0152,0.0129,0.0137,0.0125,0.0102,0.0083,0.0082,0.0049,0.0036,0.0019,-0.0018,-0.0046,-0.0088,-0.0107,-0.0124,-0.0113,-0.016,-0.013,-0.0082,-0.0125,-0.0123,-0.0122,-0.0165,-0.0168,-0.0124,-0.0124,-0.0124,0,0.0165,0.0172,0.0138,0.0145,0.0146,0.0098,0.0114,0.0094,0.0058,0.0055,0.0025,-0.0033,-0.0068,-0.0077,-0.0075,-0.01,-0.0138,-0.0095,-0.0118,-0.0117,-0.0117,-0.0162,-0.0166,-0.0121,-0.0121,-0.0121,-0.0122,0,0.0199,0.0206,0.0212,0.0208,0.0203,0.0207,0.018,0.0171,0.0143,0.0119,0.0095,0.0041,0.0009,-0.0011,-0.0039,-0.0051,-0.0083,-0.0109,-0.0126,-0.011,-0.0159,-0.0165,-0.0116,-0.0117,-0.0118,-0.0119,0,0,0.0226,0.0236,0.0238,0.0258,0.0239,0.0242,0.0248,0.0242,0.0249,0.0198,0.02,0.0148,0.0108,0.0087,0.004,0.0005,-0.0032,-0.0046,-0.005,-0.008,-0.0134,-0.014,-0.0147,-0.0069,-0.0069,-0.0069,-0.0171,0,0.0266,0.0306,0.0297,0.0339,0.036,0.0332,0.0345,0.0331,0.0302,0.0287,0.0227,0.0203,0.0148,0.0129,0.0085,-0.0004,-0.0043,-0.0002,-0.0152,-0.0156,-0.0155,-0.0152,-0.0071,-0.0175,-0.0176,-0.0177,-0.0178,0,0.0302,0.0329,0.0381,0.0418,0.0425,0.0439,0.0455,0.0459,0.0424,0.0399,0.0358,0.03,0.0247,0.019,0.0057,0.0081,-0.0014,-0.0088,-0.0094,-0.0121,-0.0171,-0.0195,-0.0189,-0.0188,-0.0187,-0.0187,-0.0186,0,0.0344,0.0388,0.0439,0.0449,0.0476,0.0498,0.0507,0.0492,0.0511,0.0466,0.0461,0.0376,0.0333,0.021,0.0058,0.0052,-0.0101,-0.0131,-0.0224,-0.0226,-0.022,-0.022,-0.0221,-0.0221,-0.0221,-0.0221,-0.022,0,0.0389,0.0429,0.0464,0.049,0.0557,0.055,0.0603,0.0594,0.0589,0.0611,0.0522,0.0509,0.0334,0.0225,0.008,-0.0087,-0.0088,-0.0208,-0.0248,-0.0192,-0.0188,-0.0225,-0.0224,-0.0224,-0.0224,-0.0223,-0.0222,0,0.0424,0.0445,0.0508,0.0555,0.0579,0.0621,0.0677,0.0708,0.069,0.0712,0.0704,0.0604,0.0456,0.0277,0.0068,-0.0048,-0.0213,-0.0273,-0.0195,-0.023,-0.0316,-0.0311,-0.038,-0.0381,-0.0382,-0.0383,-0.0383,0,0.0444,0.048,0.0559,0.0602,0.0627,0.0692,0.074,0.0756,0.0788,0.0771,0.0783,0.066,0.0568,0.0281,0.0076,-0.0199,-0.024,-0.0325,-0.0319,-0.0298,-0.0331,-0.0324,-0.0318,-0.0384,-0.0385,-0.0385,-0.0385,0,0.0483,0.0508,0.056,0.0655,0.0718,0.08,0.0862,0.0898,0.091,0.0901,0.0853,0.0702,0.0531,0.0294,0.0077,-0.0122,-0.0268,-0.0334,-0.0334,-0.0329,-0.0305,-0.0334,-0.0327,-0.0388,-0.0387,-0.0387,-0.0387,0,0.0506,0.0549,0.0616,0.0701,0.0789,0.0873,0.0908,0.0943,0.0976,0.095,0.093,0.074,0.0627,0.0333,0.0134,-0.0063,-0.0116,-0.0175,-0.0185,-0.0184,-0.0101,-0.004,-0.0067,0,0,0,0,0,0.0525,0.0575,0.0656,0.0749,0.0838,0.0897,0.0977,0.1,0.1017,0.0997,0.0966,0.0806,0.051,0.0382,0.0185,0.0104,-0.016,-0.0135,-0.0235,-0.0403,-0.04,-0.0337,0,0,0,0,0,0,0.0535,0.061,0.0657,0.0776,0.0848,0.0955,0.1012,0.1027,0.1013,0.0994,0.0844,0.076,0.0473,0.0626,0.0184,0.0122,0.0032,-0.0276,-0.028,-0.0405,-0.0402,-0.0399,-0.0334,0,0,0,0,0]}]]